When you browse on this site, cookies collect data to enhance your experience and personalize the content and advertising you see.
Visit our Privacy Policy to learn more. By continuing to use the site, you agree to this use of cookies and data.
  • In Hungary
  • List of Countries
  • For 7 days
  • Water Temperature
  • Weather Map
  • News
  • Weather Widgets
  • user-avatar
    Login

    Hourly Weather Nekrasova Balka

    Today, 22 October, Tuesday

    Time Temperature Precipitation Wind Pressure Humidity
    00:00 +14°C° 0 mm 2 mps 768 mmHg 64%
    01:00 +14°C° 0 mm 2 mps 768 mmHg 65%
    02:00 +14°C° 0 mm 2 mps 768 mmHg 66%
    03:00 +13°C° 0 mm 1 mps 767 mmHg 66%
    04:00 +13°C° 0 mm 1 mps 767 mmHg 67%
    05:00 +13°C° 0 mm 1 mps 768 mmHg 68%
    06:00 +12°C° 0 mm 2 mps 768 mmHg 68%
    07:00 +13°C° 0 mm 2 mps 768 mmHg 65%
    08:00 +14°C° 0 mm 2 mps 768 mmHg 61%
    09:00 +15°C° 0 mm 2 mps 768 mmHg 58%
    10:00 +16°C° 0 mm 2 mps 768 mmHg 53%
    11:00 +18°C° 0 mm 2 mps 768 mmHg 48%
    12:00 +19°C° 0 mm 2 mps 768 mmHg 43%
    13:00 +20°C° 0 mm 2 mps 768 mmHg 41%
    14:00 +21°C° 0 mm 1 mps 767 mmHg 40%
    15:00 +22°C° 0 mm 1 mps 767 mmHg 38%
    16:00 +21°C° 0 mm 1 mps 767 mmHg 40%
    17:00 +20°C° 0 mm 1 mps 767 mmHg 43%
    18:00 +17°C° 0 mm 0 mps 767 mmHg 45%
    19:00 +17°C° 0 mm 0 mps 767 mmHg 47%
    20:00 +18°C° 0 mm 1 mps 767 mmHg 48%
    21:00 +18°C° 0 mm 1 mps 767 mmHg 49%
    22:00 +18°C° 0 mm 1 mps 767 mmHg 50%
    23:00 +16°C° 0 mm 0 mps 767 mmHg 51%

    Tomorrow, 23 October, Wednesday

    Time Temperature Precipitation Wind Pressure Humidity
    00:00 +15°C° 0 mm 0 mps 767 mmHg 51%
    01:00 +15°C° 0 mm 0 mps 767 mmHg 53%
    02:00 +15°C° 0 mm 0 mps 767 mmHg 54%
    03:00 +14°C° 0 mm 0 mps 767 mmHg 55%
    04:00 +14°C° 0 mm 0 mps 767 mmHg 57%
    05:00 +14°C° 0 mm 0 mps 767 mmHg 60%
    06:00 +13°C° 0 mm 0 mps 767 mmHg 62%
    07:00 +15°C° 0 mm 1 mps 767 mmHg 60%
    08:00 +16°C° 0 mm 1 mps 767 mmHg 58%
    09:00 +18°C° 0 mm 1 mps 767 mmHg 56%
    10:00 +19°C° 0 mm 1 mps 767 mmHg 52%
    11:00 +20°C° 0 mm 1 mps 767 mmHg 47%
    12:00 +20°C° 0 mm 0 mps 767 mmHg 43%
    13:00 +20°C° 0 mm 0 mps 767 mmHg 43%
    14:00 +22°C° 0 mm 1 mps 766 mmHg 42%
    15:00 +23°C° 0 mm 1 mps 766 mmHg 41%
    16:00 +20°C° 0 mm 0 mps 766 mmHg 44%
    17:00 +19°C° 0 mm 0 mps 766 mmHg 47%
    18:00 +18°C° 0 mm 0 mps 766 mmHg 50%
    19:00 +17°C° 0 mm 0 mps 766 mmHg 52%
    20:00 +17°C° 0 mm 0 mps 766 mmHg 53%
    21:00 +16°C° 0 mm 0 mps 766 mmHg 55%
    22:00 +18°C° 0 mm 1 mps 766 mmHg 56%
    23:00 +16°C° 0 mm 1 mps 766 mmHg 57%

    Day after tomorrow, 24 October, Thursday

    Time Temperature Precipitation Wind Pressure Humidity
    00:00 +16°C° 0 mm 1 mps 766 mmHg 58%
    01:00 +16°C° 0 mm 1 mps 766 mmHg 59%
    02:00 +14°C° 0 mm 0 mps 766 mmHg 61%
    03:00 +14°C° 0 mm 0 mps 766 mmHg 62%
    04:00 +14°C° 0 mm 1 mps 766 mmHg 62%
    05:00 +14°C° 0 mm 1 mps 765 mmHg 62%
    06:00 +14°C° 0 mm 1 mps 765 mmHg 63%
    07:00 +15°C° 0 mm 1 mps 766 mmHg 60%
    08:00 +15°C° 0 mm 1 mps 766 mmHg 57%
    09:00 +16°C° 0 mm 2 mps 766 mmHg 54%
    10:00 +17°C° 0 mm 2 mps 765 mmHg 50%
    11:00 +18°C° 0 mm 2 mps 765 mmHg 47%
    12:00 +19°C° 0 mm 2 mps 765 mmHg 43%
    13:00 +20°C° 0 mm 2 mps 765 mmHg 41%
    14:00 +20°C° 0 mm 2 mps 765 mmHg 39%
    15:00 +22°C° 0 mm 1 mps 764 mmHg 38%
    16:00 +21°C° 0 mm 1 mps 764 mmHg 40%
    17:00 +20°C° 0 mm 1 mps 764 mmHg 43%
    18:00 +19°C° 0 mm 1 mps 764 mmHg 45%
    19:00 +18°C° 0 mm 1 mps 764 mmHg 46%
    20:00 +18°C° 0 mm 1 mps 764 mmHg 46%
    21:00 +16°C° 0 mm 1 mps 764 mmHg 47%
    22:00 +16°C° 0 mm 1 mps 764 mmHg 47%
    23:00 +16°C° 0 mm 1 mps 764 mmHg 48%

    25 October, Friday

    Time Temperature Precipitation Wind Pressure Humidity
    00:00 +15°C° 0 mm 2 mps 764 mmHg 49%
    01:00 +15°C° 0 mm 2 mps 764 mmHg 50%
    02:00 +14°C° 0 mm 2 mps 764 mmHg 52%
    03:00 +14°C° 0 mm 2 mps 764 mmHg 53%
    04:00 +13°C° 0 mm 2 mps 764 mmHg 55%
    05:00 +13°C° 0 mm 2 mps 764 mmHg 57%
    06:00 +12°C° 0 mm 2 mps 764 mmHg 58%
    07:00 +12°C° 0 mm 3 mps 764 mmHg 57%
    08:00 +13°C° 0 mm 3 mps 764 mmHg 55%
    09:00 +14°C° 0 mm 3 mps 764 mmHg 54%
    10:00 +16°C° 0 mm 3 mps 764 mmHg 50%
    11:00 +18°C° 0 mm 4 mps 764 mmHg 45%
    12:00 +19°C° 0 mm 4 mps 764 mmHg 41%
    13:00 +20°C° 0 mm 4 mps 764 mmHg 39%
    14:00 +20°C° 0 mm 4 mps 764 mmHg 38%
    15:00 +20°C° 0 mm 4 mps 764 mmHg 36%
    16:00 +19°C° 0 mm 4 mps 764 mmHg 39%
    17:00 +18°C° 0 mm 3 mps 764 mmHg 42%
    18:00 +17°C° 0 mm 3 mps 764 mmHg 45%
    19:00 +16°C° 0 mm 3 mps 764 mmHg 46%
    20:00 +14°C° 0 mm 3 mps 765 mmHg 48%
    21:00 +14°C° 0 mm 3 mps 765 mmHg 49%
    22:00 +13°C° 0 mm 3 mps 765 mmHg 51%
    23:00 +13°C° 0 mm 3 mps 765 mmHg 53%

    26 October, Saturday

    Time Temperature Precipitation Wind Pressure Humidity
    00:00 +12°C° 0 mm 4 mps 765 mmHg 55%
    01:00 +12°C° 0 mm 4 mps 765 mmHg 56%
    02:00 +12°C° 0 mm 4 mps 765 mmHg 58%
    03:00 +11°C° 0 mm 4 mps 765 mmHg 60%
    04:00 +11°C° 0 mm 4 mps 766 mmHg 61%
    05:00 +11°C° 0 mm 4 mps 766 mmHg 61%
    06:00 +10°C° 0 mm 4 mps 766 mmHg 62%
    07:00 +11°C° 0 mm 4 mps 766 mmHg 59%
    08:00 +12°C° 0 mm 4 mps 766 mmHg 56%
    09:00 +13°C° 0 mm 4 mps 766 mmHg 54%
    10:00 +15°C° 0 mm 5 mps 766 mmHg 48%
    11:00 +16°C° 0 mm 5 mps 766 mmHg 43%
    12:00 +19°C° 0 mm 5 mps 766 mmHg 38%
    13:00 +20°C° 0 mm 5 mps 766 mmHg 37%
    14:00 +20°C° 0 mm 5 mps 766 mmHg 35%
    15:00 +21°C° 0 mm 5 mps 765 mmHg 34%
    16:00 +19°C° 0 mm 4 mps 765 mmHg 37%
    17:00 +18°C° 0 mm 4 mps 765 mmHg 40%
    18:00 +17°C° 0 mm 3 mps 765 mmHg 43%
    19:00 +16°C° 0 mm 3 mps 765 mmHg 44%
    20:00 +16°C° 0 mm 3 mps 765 mmHg 45%
    21:00 +14°C° 0 mm 4 mps 765 mmHg 46%
    22:00 +14°C° 0 mm 3 mps 765 mmHg 48%
    23:00 +13°C° 0 mm 3 mps 765 mmHg 50%

    27 October, Sunday

    Time Temperature Precipitation Wind Pressure Humidity
    00:00 +13°C° 0 mm 3 mps 765 mmHg 51%
    01:00 +12°C° 0 mm 3 mps 765 mmHg 55%
    02:00 +12°C° 0 mm 3 mps 764 mmHg 58%
    03:00 +12°C° 0 mm 3 mps 764 mmHg 61%
    04:00 +11°C° 0 mm 3 mps 764 mmHg 64%
    05:00 +11°C° 0 mm 3 mps 764 mmHg 67%
    06:00 +11°C° 0 mm 3 mps 764 mmHg 71%
    07:00 +11°C° 0 mm 3 mps 764 mmHg 70%
    08:00 +12°C° 0 mm 3 mps 764 mmHg 69%
    09:00 +13°C° 0 mm 3 mps 764 mmHg 67%
    10:00 +16°C° 0 mm 3 mps 764 mmHg 60%
    11:00 +18°C° 0 mm 3 mps 763 mmHg 53%
    12:00 +19°C° 0 mm 3 mps 763 mmHg 46%
    13:00 +20°C° 0 mm 3 mps 763 mmHg 44%
    14:00 +20°C° 0 mm 2 mps 762 mmHg 41%
    15:00 +20°C° 0 mm 2 mps 762 mmHg 39%
    16:00 +20°C° 0 mm 1 mps 762 mmHg 43%
    17:00 +19°C° 0 mm 1 mps 761 mmHg 47%
    18:00 +18°C° 0 mm 1 mps 761 mmHg 51%
    19:00 +16°C° 0 mm 1 mps 761 mmHg 55%
    20:00 +16°C° 0 mm 1 mps 761 mmHg 58%
    21:00 +15°C° 0 mm 1 mps 761 mmHg 61%
    22:00 +15°C° 0 mm 1 mps 761 mmHg 63%
    23:00 +14°C° 0 mm 1 mps 761 mmHg 65%

    28 October, Monday

    Time Temperature Precipitation Wind Pressure Humidity
    00:00 +13°C° 0 mm 0 mps 760 mmHg 67%
    01:00 +13°C° 0 mm 1 mps 760 mmHg 68%
    02:00 +13°C° 0 mm 1 mps 760 mmHg 70%
    03:00 +13°C° 0 mm 1 mps 760 mmHg 72%
    04:00 +13°C° 0 mm 2 mps 760 mmHg 75%
    05:00 +12°C° 0 mm 2 mps 760 mmHg 77%
    06:00 +12°C° 0 mm 2 mps 760 mmHg 80%
    07:00 +13°C° 0 mm 2 mps 760 mmHg 75%
    08:00 +14°C° 0 mm 2 mps 760 mmHg 69%
    09:00 +14°C° 0 mm 2 mps 760 mmHg 64%
    10:00 +16°C° 0 mm 2 mps 760 mmHg 58%
    11:00 +17°C° 0 mm 2 mps 760 mmHg 52%
    12:00 +19°C° 0 mm 3 mps 760 mmHg 46%
    13:00 +19°C° 0 mm 3 mps 760 mmHg 46%
    14:00 +19°C° 0 mm 3 mps 760 mmHg 46%
    15:00 +20°C° 0 mm 4 mps 759 mmHg 46%
    16:00 +19°C° 0 mm 4 mps 759 mmHg 49%
    17:00 +18°C° 0 mm 3 mps 759 mmHg 53%
    18:00 +17°C° 0 mm 3 mps 759 mmHg 57%
    19:00 +16°C° 0 mm 3 mps 759 mmHg 60%
    20:00 +16°C° 0 mm 3 mps 759 mmHg 63%
    21:00 +14°C° 0 mm 3 mps 760 mmHg 65%
    22:00 +15°C° 0 mm 2 mps 759 mmHg 68%
    23:00 +15°C° 0 mm 2 mps 759 mmHg 71%
    Show more